Location: Kanab
(37.0481°N, 112.5285°W)
Time: 21:11:42
(UTC-06:00)

Envisat - Visible Passes

Search period start: 20 October 2021 00:00
Search period end: 30 October 2021 00:00
Orbit: 764 x 766 km, 98.2° (Epoch: 20 October)

Date Brightness Start Highest point End Pass type
(mag) Time Alt. Az. Time Alt. Az. Time Alt. Az.
20 Oct 4.9 05:52:38 10° NE 05:57:08 31° E 06:01:35 10° SSE visible
21 Oct 6.1 05:17:37 10° ENE 05:19:59 13° E 05:22:19 10° ESE visible
21 Oct 3.0 06:54:22 10° N 06:59:22 62° WNW 07:04:22 10° SSW visible
22 Oct 3.7 06:17:32 10° NNE 06:22:33 56° E 06:27:31 10° S visible
22 Oct 6.3 19:11:28 10° WSW 19:14:02 14° W 19:16:37 10° WNW visible
23 Oct 5.3 05:41:27 10° NE 05:45:32 24° E 05:49:36 10° SSE visible
24 Oct 2.9 06:42:47 10° N 06:47:52 80° WNW 06:52:56 10° SSW visible
25 Oct 4.2 06:06:09 10° NNE 06:10:59 43° E 06:15:48 10° S visible
26 Oct 5.7 05:30:23 10° NE 05:33:55 19° E 05:37:26 10° SE visible
26 Oct 3.3 07:08:18 10° N 07:13:06 44° WNW 07:17:54 10° SW visible
27 Oct 3.1 06:31:15 10° NNE 06:36:22 80° ESE 06:41:25 10° S visible
28 Oct 4.7 05:54:49 10° NNE 05:59:25 33° E 06:03:59 10° SSE visible
29 Oct 6.0 05:19:34 10° ENE 05:22:17 14° E 05:24:59 10° SE visible
29 Oct 3.0 06:56:38 10° N 07:01:37 57° WNW 07:06:35 10° SSW visible
